{"data":{"norad_id":61577,"intl_designator":"2024-187D","name":"STARLINK-11375 [DTC]","alt_names":[],"object_type":"PAYLOAD","status":"ACTIVE","operator":null,"country":"US","launch_date":"2024-10-18","launch_site_code":"AFETR","launch_vehicle":null,"mission":null,"orbit_class":"UNKNOWN","rcs_meters":null,"size_class":null,"mass_kg":null,"dimensions":null,"purposes":["comms"],"wikipedia_slug":null,"has_3d_model":false,"image_url":null,"decayed_at":null,"tle_current":{"epoch":"2026-09-20T17:12:58.929408Z","epoch_age_seconds":173349,"freshness":"STALE","line1":"1 61577U 24187D   26263.71734872  .00000835  00000+0  11745-4 0  9993","line2":"2 61577  53.1591  54.6893 0000917  88.9117 271.2006 15.69709120111380","mean_motion":15.6970912,"eccentricity":9.17e-5,"inclination_deg":53.1591,"raan_deg":54.6893,"arg_perigee_deg":88.9117,"mean_anomaly_deg":271.2006,"bstar":1.1745e-5,"rev_number":11138,"period_min":91.736741645484,"perigee_km":359.11140630728,"apogee_km":360.34713098095,"semimajor_km":6737.8662686441,"source":"CELESTRAK","updated_at":"2026-09-22T09:00:49.390562Z"}}}